Regional Weather Roundup
Issued by NWS

Home | Current Version | Previous Version | Text Only | Print | Product List | Glossary On
Versions: 1 2 3 4 5 6 7 8 9 10 11 12 13 14 15 16 17 18 19 20 21 22 23 24 25 26 27 28 29 30 31 32 33 34 35 36 37 38 39 40 41 42 43 44 45 46 47 48 49 50
000
ASUS43 KDMX 140807
RWRIA

WEATHER ROUNDUP FOR IOWA
NATIONAL WEATHER SERVICE DES MOINES IA
300 AM CDT MON JUL 14 2014

NOTE: "FAIR" INDICATES FEW OR NO CLOUDS BELOW 12,000 FEET WITH NO
SIGNIFICANT WEATHER AND/OR OBSTRUCTIONS TO VISIBILITY.

* - THESE STATIONS ARE NOT NWS STATIONS...THUS NOT UNDER NWS
QUALITY CONTROL.  THEY ALSO DO NOT REPORT WEATHER SUCH
AS PRECIPITATION OR FOG.

IAZ001>003-012>014-020>022-031>034-043>046-140900-
   NORTHWEST IOWA

CITY           SKY/WX    TMP DP  RH WIND       PRES   REMARKS
CARROLL *      MOCLDY    63  61  94 NW6       29.97R
CHEROKEE *     CLEAR     57  57 100 CALM      29.99S FOG
DENISON *      MOCLDY    64  61  88 CALM      29.97R
LE MARS *      CLEAR     59  55  88 CALM      30.01S
ORANGE CITY *  CLEAR     57  52  82 NW3       30.00S
SHELDON *      CLEAR     54  52  94 W5        29.98F
SIOUX CITY     MOCLDY    64  59  83 N6        30.00S
SPENCER        CLEAR     55  52  89 W3        29.98S
STORM LAKE *   CLEAR     59  55  88 NW8       29.99S
$$

IAZ055>058-069>071-079>083-090>094-140900-
   SOUTHWEST IOWA

CITY           SKY/WX    TMP DP  RH WIND       PRES   REMARKS
ATLANTIC *     CLEAR     66  63  88 N6        29.96S
AUDUBON *      CLEAR     68  64  88 NW5       29.98S
CLARINDA *     FOG       66  66 100 CALM      29.96S VSB 1/4
COUNCIL BLFS * MOCLDY    70  68  94 N7        29.98R
CRESTON *      CLEAR     66  64  94 W5        29.95S
HARLAN  *      CLEAR     64  63  94 N6        30.01R
LAMONI         CLEAR     70  65  84 SW5       29.94F
RED OAK *      CLEAR     66  66 100 CALM      29.96R
SHENANDOAH *   CLEAR     66  64  94 CALM      29.97R
$$

IAZ047>049-059>061-072>074-084-140900-
   CENTRAL IOWA

CITY           SKY/WX    TMP DP  RH WIND       PRES   REMARKS
AMES           CLEAR     66  62  87 N7        29.93S
ANKENY *       MOCLDY    68  66  94 W6        29.92S
CHARITON *     CLEAR     68  66  94 SW5       29.93S
DES MOINES     PTCLDY    70  66  87 NW5       29.92S
GRINNELL*      PTCLDY    66  64  94 NW3       29.93S
KNOXVILLE *    PTCLDY    68  64  88 W6        29.91S
MARSHALLTOWN   PTCLDY    64  61  90 NW3       29.92S
PELLA *        PTCLDY    70  66  88 NW3       29.92F
PERRY *          N/A     66  64  94 NW5       29.95R
$$

IAZ004>006-015-016-023>025-035-036-140900-
   NORTH CENTRAL IOWA

CITY           SKY/WX    TMP DP  RH WIND       PRES   REMARKS
ALGONA *       CLEAR     57  54  88 W6        29.95F
CLARION *      CLEAR     57  57 100 CALM      29.94S
ESTHERVILLE    CLEAR     55  52  89 W8        29.96S
FORT DODGE *   CLEAR     59  57  94 CALM      29.96S
MASON CITY     CLEAR     54  51  90 W5        29.94F
FOREST CITY *  CLEAR     52  52 100 CALM      29.93F
IOWA FALLS *     N/A     63  59  88 NW3       29.94S
$$

IAZ007>011-017>019-026>030-037>042-050>054-066-140900-
   NORTHEAST IOWA

CITY           SKY/WX    TMP DP  RH WIND       PRES   REMARKS
CEDAR RAPIDS   CLOUDY    68  66  93 NW5       29.89S
CHARLES CITY * CLEAR     59  54  82 CALM      29.93S
CLINTON *      PTCLDY    64  63  94 S5        29.92F
DECORAH *        N/A    N/A N/A N/A MISG        N/A
DUBUQUE        MOCLDY    63  60  90 CALM      29.90F
MONTICELLO *   CLOUDY    64  64 100 CALM      29.89S
OELWEIN *      PTCLDY    63  63 100 N5        29.92F
WATERLOO       PTCLDY    62  58  86 NW5       29.91S
$$

IAZ064-065-067-068-078-140900-
   EAST CENTRAL IOWA

CITY           SKY/WX    TMP DP  RH WIND       PRES   REMARKS
DAVENPORT        N/A     65  62  90 S3        29.90F
IOWA CITY      CLOUDY    68  66  93 CALM      29.90F
MT. PLEASANT * CLOUDY    66  66 100 SW5       29.91F
MUSCATINE *    MOCLDY    68  66  94 CALM      29.89F
QUAD CITIES    PTCLDY    65  62  90 CALM      29.89F
$$

IAZ062-063-075>077-085>089-095>099-140900-
   SOUTHEAST IOWA

CITY           SKY/WX    TMP DP  RH WIND       PRES   REMARKS
BURLINGTON     CLEAR     68  66  93 SW5       29.90F
FAIRFIELD *    CLOUDY    68  64  88 W5        29.91F
FORT MADISON * CLEAR     70  68  94 CALM      29.92S
KEOKUK *       PTCLDY    68  68 100 CALM      29.91S
OSKALOOSA *    MOCLDY    68  66  94 SW5       29.91F
CENTERVILLE *  CLEAR     66  66 100 SW5       29.94F
OTTUMWA        CLOUDY    68  66  93 SW5       29.91F
WASHINGTON *   CLOUDY    68  66  94 SW3       29.90F
$$

ABBREVIATIONS USED IN REMARKS
   TC - TEMPERATURES IN CELSIUS
  WCI - WIND CHILL INDEX
   HX - HEAT INDEX
  VSB - VISIBILITY
$$



USA.gov is the U.S. government's official web portal to all federal, state and local government web resources and services.